Regional Weather Roundup
Issued by NWS Burlington, VT

Home | Current Version | Previous Version | Text Only | Print | Product List | Glossary On
Versions: 1 2 3 4 5 6 7 8 9 10 11 12 13 14 15 16 17 18 19 20 21 22 23 24 25 26 27 28 29 30 31 32 33 34 35 36 37 38 39 40 41 42 43 44 45 46 47 48 49 50
000
ASUS41 KBTV 242130
RWRBTV
VERMONT REGIONAL WEATHER ROUNDUP
NATIONAL WEATHER SERVICE BURLINGTON VT
500 PM EDT MON JUL 24 2017

NOTE: "FAIR" INDICATES FEW OR NO CLOUDS BELOW 12,000 FEET WITH NO
SIGNIFICANT WEATHER AND/OR OBSTRUCTIONS TO VISIBILITY.

* THESE REPORTS ARE NOT UNDER NWS QUALITY CONTROL AND/OR DO NOT
  REPORT WEATHER SUCH AS PRECIPITATION AND FOG.

VTZ001>019-242200-
_____VERMONT_____


CITY           SKY/WX    TMP DP  RH WIND       PRES   REMARKS
BURLINGTON     CLOUDY    63  56  78 S6        29.93R
MONTPELIER     LGT RAIN  56  54  93 SE6       30.00F
MORRISVILLE    CLOUDY    56  53  90 S5        29.98S
ST. JOHNSBURY*   N/A     57  56  96 MISG      29.96F
LYNDONVILLE*   LGT RAIN  55  53  93 E3        29.99F
MIDDLEBURY*    CLOUDY    59  51  75 S5G24     29.92R
RUTLAND*       CLOUDY    58  54  86 SE7G18    29.93F
SPRINGFIELD    CLOUDY    58  53  84 CALM      29.96S
HIGHGATE*      CLOUDY    58  57  96 NE3       29.95R
NEWPORT*       LGT RAIN  56  54  94 E3        29.98F
BENNINGTON     CLOUDY    63  53  70 SE8       29.89S
ISLAND POND*     N/A     55 N/A N/A E6          N/A
GALLUP MILLS*    N/A     55 N/A N/A MISG        N/A
UNION VILLAGE*   N/A     57 N/A N/A MISG        N/A
MT. MANSFIELD*   N/A     46 N/A N/A E30         N/A

_____LAKE CHAMPLAIN_____


CITY           SKY/WX    TMP DP  RH WIND       PRES   REMARKS
BURTON ISLAND*   N/A     61  55  82 S2          N/A
COLCHESTER RF*   N/A     63  57  82 S12         N/A
DIAMOND ISL*     N/A     61  55  82 S9          N/A

$$

NYZ007-026>031-035-052-083-087-242200-
_____NORTHERN NEW YORK_____


CITY           SKY/WX    TMP DP  RH WIND       PRES   REMARKS
PLATTSBURGH    CLOUDY    60  57  89 S3        29.92F
SARANAC LAKE   CLOUDY    59  53  80 SE7       29.88R
MASSENA        LGT RAIN  60  59  96 NE14      29.86S
OGDENSBURG*    CLOUDY    62  61  96 E8        29.81S
POTSDAM*       HVY RAIN  36  36 100 SE7       29.85R VSB 3/4 WCI  30
STARK FALLS*     N/A     59 N/A N/A E9          N/A
WATERTOWN      LGT RAIN  69  66  90 SW7       29.78S
FT DRUM        CLOUDY    66  58  77 SE17G25   29.78F
ALBANY         CLOUDY    65  57  75 W3        29.88F
GLENS FALLS    CLOUDY    62  55  77 N9        29.89F

$$
NHZ002-005-011-242200-
_____NEW HAMPSHIRE_____


CITY           SKY/WX    TMP DP  RH WIND       PRES   REMARKS
LEBANON        CLOUDY    59  53  80 VRB3      29.96F
KEENE          LGT RAIN  57  55  94 CALM      29.94F
MT WASHINGTON  RAIN      36  36 100 E38G45      N/A  VSB 0   WCI  21
PLYMOUTH       LGT RAIN  58  54  87 CALM      29.98F
WHITEFIELD     LGT RAIN  57  53  86 CALM      29.99S

$$

_____REGIONAL QUEBEC LOCATIONS_____


CITY           SKY/WX    TMP DP  RH WIND       PRES   REMARKS
MONTREAL       LGT RAIN  61  59  94 E5        29.95S
QUEBEC CITY    CLOUDY    66  48  52 E13       30.01S
SHERBROOKE     LGT RAIN  59  57  94 E5        29.99F

_____REGIONAL ONTARIO LOCATIONS_____


CITY           SKY/WX    TMP DP  RH WIND       PRES   REMARKS
OTTAWA         LGT RAIN  57  57 100 E17       29.86R

______KEY______
VSB  - VISIBILITY IN MILES
WCI  - WIND CHILL INDEX
HX   - HEAT INDEX
$$
NNNN




USA.gov is the U.S. government's official web portal to all federal, state and local government web resources and services.